Year,Month,Day,Hour,Minute,Value (Times are PST for temperature in C)
2009,04,24,00,00,5.30
2009,04,24,00,01,5.30
2009,04,24,00,02,5.20
2009,04,24,00,03,5.20
2009,04,24,00,04,5.20
2009,04,24,00,05,5.20
2009,04,24,00,06,5.20
2009,04,24,00,07,5.20
2009,04,24,00,08,5.20
2009,04,24,00,09,5.20
2009,04,24,00,10,5.10
2009,04,24,00,11,5.10
2009,04,24,00,12,5.10
2009,04,24,00,13,5.10
2009,04,24,00,14,5.10
2009,04,24,00,15,5.00
2009,04,24,00,16,5.00
2009,04,24,00,17,5.00
2009,04,24,00,18,4.90
2009,04,24,00,19,4.90
2009,04,24,00,20,4.90
2009,04,24,00,21,4.90
2009,04,24,00,22,4.80
2009,04,24,00,23,4.80
2009,04,24,00,24,4.80
2009,04,24,00,25,4.70
2009,04,24,00,26,4.70
2009,04,24,00,27,4.70
2009,04,24,00,28,4.70
2009,04,24,00,29,4.70
2009,04,24,00,30,4.60
2009,04,24,00,31,4.60
2009,04,24,00,32,4.60
2009,04,24,00,33,4.50
2009,04,24,00,34,4.50
2009,04,24,00,35,4.40
2009,04,24,00,36,4.40
2009,04,24,00,37,4.40
2009,04,24,00,38,4.30
2009,04,24,00,39,4.30
2009,04,24,00,40,4.30
2009,04,24,00,41,4.20
2009,04,24,00,42,4.20
2009,04,24,00,43,4.20
2009,04,24,00,44,4.10
2009,04,24,00,45,4.10
2009,04,24,00,46,4.10
2009,04,24,00,47,4.10
2009,04,24,00,48,4.00
2009,04,24,00,49,4.00
2009,04,24,00,50,3.90
2009,04,24,00,51,3.90
2009,04,24,00,52,3.90
2009,04,24,00,53,3.80
2009,04,24,00,54,3.80
2009,04,24,00,55,3.80
2009,04,24,00,56,3.70
2009,04,24,00,57,3.70
2009,04,24,00,58,3.70
2009,04,24,00,59,3.60
2009,04,24,01,00,3.60
2009,04,24,01,01,3.60
2009,04,24,01,02,3.60
2009,04,24,01,03,3.50
2009,04,24,01,04,3.50
2009,04,24,01,05,3.40
2009,04,24,01,06,3.40
2009,04,24,01,07,3.30
2009,04,24,01,08,3.30
2009,04,24,01,09,3.30
2009,04,24,01,10,3.20
2009,04,24,01,11,3.20
2009,04,24,01,12,3.20
2009,04,24,01,13,3.20
2009,04,24,01,14,3.10
2009,04,24,01,15,3.10
2009,04,24,01,16,3.10
2009,04,24,01,17,3.10
2009,04,24,01,18,3.10
2009,04,24,01,19,3.00
2009,04,24,01,20,3.00
2009,04,24,01,21,2.90
2009,04,24,01,22,2.90
2009,04,24,01,23,2.80
2009,04,24,01,24,2.80
2009,04,24,01,25,2.80
2009,04,24,01,26,2.80
2009,04,24,01,27,2.80
2009,04,24,01,28,2.80
2009,04,24,01,29,2.90
2009,04,24,01,30,2.90
2009,04,24,01,31,2.90
2009,04,24,01,32,2.90
2009,04,24,01,33,2.90
2009,04,24,01,34,2.90
2009,04,24,01,35,2.90
2009,04,24,01,36,2.90
2009,04,24,01,37,2.90
2009,04,24,01,38,3.00
2009,04,24,01,39,3.00
2009,04,24,01,40,3.00
2009,04,24,01,41,3.00
2009,04,24,01,42,3.00
2009,04,24,01,43,2.90
2009,04,24,01,44,2.90
2009,04,24,01,45,2.90
2009,04,24,01,46,2.90
2009,04,24,01,47,2.90
2009,04,24,01,48,2.80
2009,04,24,01,49,2.80
2009,04,24,01,50,2.80
2009,04,24,01,51,2.70
2009,04,24,01,52,2.70
2009,04,24,01,53,2.70
2009,04,24,01,54,2.70
2009,04,24,01,55,2.60
2009,04,24,01,56,2.60
2009,04,24,01,57,2.60
2009,04,24,01,58,2.50
2009,04,24,01,59,2.50
2009,04,24,02,00,2.50
2009,04,24,02,01,2.50
2009,04,24,02,02,2.50
2009,04,24,02,03,2.50
2009,04,24,02,04,2.50
2009,04,24,02,05,2.50
2009,04,24,02,06,2.40
2009,04,24,02,07,2.40
2009,04,24,02,08,2.40
2009,04,24,02,09,2.40
2009,04,24,02,10,2.40
2009,04,24,02,11,2.40
2009,04,24,02,12,2.40
2009,04,24,02,13,2.30
2009,04,24,02,14,2.30
2009,04,24,02,15,2.30
2009,04,24,02,16,2.30
2009,04,24,02,17,2.20
2009,04,24,02,18,2.20
2009,04,24,02,19,2.20
2009,04,24,02,20,2.10
2009,04,24,02,21,2.10
2009,04,24,02,22,2.10
2009,04,24,02,23,2.00
2009,04,24,02,24,2.00
2009,04,24,02,25,2.00
2009,04,24,02,26,2.00
2009,04,24,02,27,2.00
2009,04,24,02,28,2.00
2009,04,24,02,29,2.10
2009,04,24,02,30,2.10
2009,04,24,02,31,2.10
2009,04,24,02,32,2.10
2009,04,24,02,33,2.10
2009,04,24,02,34,2.10
2009,04,24,02,35,2.10
2009,04,24,02,36,2.10
2009,04,24,02,37,2.00
2009,04,24,02,38,2.00
2009,04,24,02,39,2.00
2009,04,24,02,40,1.90
2009,04,24,02,41,1.90
2009,04,24,02,42,1.90
2009,04,24,02,43,1.90
2009,04,24,02,44,1.80
2009,04,24,02,45,1.80
2009,04,24,02,46,1.80
2009,04,24,02,47,1.80
2009,04,24,02,48,1.80
2009,04,24,02,49,1.80
2009,04,24,02,50,1.70
2009,04,24,02,51,1.70
2009,04,24,02,52,1.70
2009,04,24,02,53,1.70
2009,04,24,02,54,1.70
2009,04,24,02,55,1.70
2009,04,24,02,56,1.70
2009,04,24,02,57,1.70
2009,04,24,02,58,1.60
2009,04,24,02,59,1.60
2009,04,24,03,00,1.60
2009,04,24,03,01,1.60
2009,04,24,03,02,1.60
2009,04,24,03,03,1.50
2009,04,24,03,04,1.60
2009,04,24,03,05,1.60
2009,04,24,03,06,1.60
2009,04,24,03,07,1.60
2009,04,24,03,08,1.60
2009,04,24,03,09,1.60
2009,04,24,03,10,1.60
2009,04,24,03,11,1.60
2009,04,24,03,12,1.50
2009,04,24,03,13,1.50
2009,04,24,03,14,1.50
2009,04,24,03,15,1.50
2009,04,24,03,16,1.40
2009,04,24,03,17,1.40
2009,04,24,03,18,1.40
2009,04,24,03,19,1.40
2009,04,24,03,20,1.40
2009,04,24,03,21,1.40
2009,04,24,03,22,1.30
2009,04,24,03,23,1.30
2009,04,24,03,24,1.30
2009,04,24,03,25,1.30
2009,04,24,03,26,1.30
2009,04,24,03,27,1.30
2009,04,24,03,28,1.30
2009,04,24,03,29,1.30
2009,04,24,03,30,1.30
2009,04,24,03,31,1.30
2009,04,24,03,32,1.30
2009,04,24,03,33,1.30
2009,04,24,03,34,1.30
2009,04,24,03,35,1.30
2009,04,24,03,36,1.30
2009,04,24,03,37,1.30
2009,04,24,03,38,1.20
2009,04,24,03,39,1.20
2009,04,24,03,40,1.20
2009,04,24,03,41,1.20
2009,04,24,03,42,1.20
2009,04,24,03,43,1.20
2009,04,24,03,44,1.20
2009,04,24,03,45,1.20
2009,04,24,03,46,1.20
2009,04,24,03,47,1.20
2009,04,24,03,48,1.20
2009,04,24,03,49,1.20
2009,04,24,03,50,1.20
2009,04,24,03,51,1.20
2009,04,24,03,52,1.20
2009,04,24,03,53,1.20
2009,04,24,03,54,1.30
2009,04,24,03,55,1.30
2009,04,24,03,56,1.30
2009,04,24,03,57,1.30
2009,04,24,03,58,1.30
2009,04,24,03,59,1.30
2009,04,24,04,00,1.30
2009,04,24,04,01,1.20
2009,04,24,04,02,1.20
2009,04,24,04,03,1.20
2009,04,24,04,04,1.20
2009,04,24,04,05,1.30
2009,04,24,04,06,1.30
2009,04,24,04,07,1.20
2009,04,24,04,08,1.20
2009,04,24,04,09,1.20
2009,04,24,04,10,1.20
2009,04,24,04,11,1.20
2009,04,24,04,12,1.20
2009,04,24,04,13,1.20
2009,04,24,04,14,1.20
2009,04,24,04,15,1.20
2009,04,24,04,16,1.20
2009,04,24,04,17,1.20
2009,04,24,04,18,1.20
2009,04,24,04,19,1.30
2009,04,24,04,20,1.30
2009,04,24,04,21,1.30
2009,04,24,04,22,1.30
2009,04,24,04,23,1.30
2009,04,24,04,24,1.30
2009,04,24,04,25,1.30
2009,04,24,04,26,1.30
2009,04,24,04,27,1.30
2009,04,24,04,28,1.30
2009,04,24,04,29,1.20
2009,04,24,04,30,1.20
2009,04,24,04,31,1.20
2009,04,24,04,32,1.10
2009,04,24,04,33,1.10
2009,04,24,04,34,1.00
2009,04,24,04,35,1.00
2009,04,24,04,36,0.90
2009,04,24,04,37,0.90
2009,04,24,04,38,0.90
2009,04,24,04,39,0.80
2009,04,24,04,40,0.80
2009,04,24,04,41,0.80
2009,04,24,04,42,0.80
2009,04,24,04,43,0.80
2009,04,24,04,44,0.70
2009,04,24,04,45,0.70
2009,04,24,04,46,0.70
2009,04,24,04,47,0.70
2009,04,24,04,48,0.70
2009,04,24,04,49,0.60
2009,04,24,04,50,0.60
2009,04,24,04,51,0.60
2009,04,24,04,52,0.50
2009,04,24,04,53,0.50
2009,04,24,04,54,0.50
2009,04,24,04,55,0.50
2009,04,24,04,56,0.40
2009,04,24,04,57,0.40
2009,04,24,04,58,0.40
2009,04,24,04,59,0.40
2009,04,24,05,00,0.40
2009,04,24,05,01,0.40
2009,04,24,05,02,0.40
2009,04,24,05,03,0.40
2009,04,24,05,04,0.40
2009,04,24,05,05,0.40
2009,04,24,05,06,0.40
2009,04,24,05,07,0.40
2009,04,24,05,08,0.40
2009,04,24,05,09,0.40
2009,04,24,05,10,0.30
2009,04,24,05,11,0.30
2009,04,24,05,12,0.30
2009,04,24,05,13,0.30
2009,04,24,05,14,0.30
2009,04,24,05,15,0.30
2009,04,24,05,16,0.30
2009,04,24,05,17,0.30
2009,04,24,05,18,0.30
2009,04,24,05,19,0.40
2009,04,24,05,20,0.40
2009,04,24,05,21,0.40
2009,04,24,05,22,0.50
2009,04,24,05,23,0.50
2009,04,24,05,24,0.50
2009,04,24,05,25,0.50
2009,04,24,05,26,0.50
2009,04,24,05,27,0.50
2009,04,24,05,28,0.50
2009,04,24,05,29,0.50
2009,04,24,05,30,0.40
2009,04,24,05,31,0.40
2009,04,24,05,32,0.40
2009,04,24,05,33,0.40
2009,04,24,05,34,0.40
2009,04,24,05,35,0.40
2009,04,24,05,36,0.40
2009,04,24,05,37,0.40
2009,04,24,05,38,0.40
2009,04,24,05,39,0.40
2009,04,24,05,40,0.30
2009,04,24,05,41,0.30
2009,04,24,05,42,0.30
2009,04,24,05,43,0.30
2009,04,24,05,44,0.30
2009,04,24,05,45,0.30
2009,04,24,05,46,0.30
2009,04,24,05,47,0.30
2009,04,24,05,48,0.30
2009,04,24,05,49,0.30
2009,04,24,05,50,0.30
2009,04,24,05,51,0.20
2009,04,24,05,52,0.20
2009,04,24,05,53,0.20
2009,04,24,05,54,0.20
2009,04,24,05,55,0.20
2009,04,24,05,56,0.30
2009,04,24,05,57,0.30
2009,04,24,05,58,0.30
2009,04,24,05,59,0.30
2009,04,24,06,00,0.30
2009,04,24,06,01,0.30
2009,04,24,06,02,0.30
2009,04,24,06,03,0.30
2009,04,24,06,04,0.30
2009,04,24,06,05,0.30
2009,04,24,06,06,0.30
2009,04,24,06,07,0.30
2009,04,24,06,08,0.30
2009,04,24,06,09,0.30
2009,04,24,06,10,0.30
2009,04,24,06,11,0.30
2009,04,24,06,12,0.30
2009,04,24,06,13,0.30
2009,04,24,06,14,0.30
2009,04,24,06,15,0.30
2009,04,24,06,16,0.30
2009,04,24,06,17,0.20
2009,04,24,06,18,0.20
2009,04,24,06,19,0.20
2009,04,24,06,20,0.20
2009,04,24,06,21,0.20
2009,04,24,06,22,0.20
2009,04,24,06,23,0.20
2009,04,24,06,24,0.20
2009,04,24,06,25,0.20
2009,04,24,06,26,0.30
2009,04,24,06,27,0.30
2009,04,24,06,28,0.30
2009,04,24,06,29,0.30
2009,04,24,06,30,0.30
2009,04,24,06,31,0.30
2009,04,24,06,32,0.30
2009,04,24,06,33,0.30
2009,04,24,06,34,0.40
2009,04,24,06,35,0.40
2009,04,24,06,36,0.40
2009,04,24,06,37,0.40
2009,04,24,06,38,0.50
2009,04,24,06,39,0.60
2009,04,24,06,40,0.60
2009,04,24,06,41,0.70
2009,04,24,06,42,0.70
2009,04,24,06,43,0.80
2009,04,24,06,44,0.80
2009,04,24,06,45,0.80
2009,04,24,06,46,0.90
2009,04,24,06,47,0.90
2009,04,24,06,48,0.90
2009,04,24,06,49,0.90
2009,04,24,06,50,0.90
2009,04,24,06,51,0.90
2009,04,24,06,52,0.90
2009,04,24,06,53,0.90
2009,04,24,06,54,1.00
2009,04,24,06,55,1.00
2009,04,24,06,56,1.00
2009,04,24,06,57,1.10
2009,04,24,06,58,1.10
2009,04,24,06,59,1.10
2009,04,24,07,00,1.20
2009,04,24,07,01,1.20
2009,04,24,07,02,1.30
2009,04,24,07,03,1.30
2009,04,24,07,04,1.30
2009,04,24,07,05,1.30
2009,04,24,07,06,1.50
2009,04,24,07,07,1.60
2009,04,24,07,08,1.70
2009,04,24,07,09,1.70
2009,04,24,07,10,1.80
2009,04,24,07,11,1.80
2009,04,24,07,12,1.90
2009,04,24,07,13,1.90
2009,04,24,07,14,2.00
2009,04,24,07,15,2.00
2009,04,24,07,16,2.10
2009,04,24,07,17,2.20
2009,04,24,07,18,2.20
2009,04,24,07,19,2.30
2009,04,24,07,20,2.40
2009,04,24,07,21,2.50
2009,04,24,07,22,2.50
2009,04,24,07,23,2.60
2009,04,24,07,24,2.60
2009,04,24,07,25,2.60
2009,04,24,07,26,2.60
2009,04,24,07,27,2.60
2009,04,24,07,28,2.50
2009,04,24,07,29,2.50
2009,04,24,07,30,2.50
2009,04,24,07,31,2.50
2009,04,24,07,32,2.50
2009,04,24,07,33,2.60
2009,04,24,07,34,2.60
2009,04,24,07,35,2.60
2009,04,24,07,36,2.70
2009,04,24,07,37,2.70
2009,04,24,07,38,2.80
2009,04,24,07,39,2.80
2009,04,24,07,40,2.90
2009,04,24,07,41,2.90
2009,04,24,07,42,3.00
2009,04,24,07,43,3.10
2009,04,24,07,44,3.20
2009,04,24,07,45,3.30
2009,04,24,07,46,3.30
2009,04,24,07,47,3.40
2009,04,24,07,48,3.60
2009,04,24,07,49,3.70
2009,04,24,07,50,3.80
2009,04,24,07,51,3.90
2009,04,24,07,52,4.00
2009,04,24,07,53,4.10
2009,04,24,07,54,4.10
2009,04,24,07,55,4.20
2009,04,24,07,56,4.30
2009,04,24,07,57,4.30
2009,04,24,07,58,4.40
2009,04,24,07,59,4.50
2009,04,24,08,00,4.60
2009,04,24,08,01,4.70
2009,04,24,08,02,4.70
2009,04,24,08,03,4.80
2009,04,24,08,04,4.80
2009,04,24,08,05,4.90
2009,04,24,08,06,4.90
2009,04,24,08,07,5.00
2009,04,24,08,08,5.10
2009,04,24,08,09,5.10
2009,04,24,08,10,5.10
2009,04,24,08,11,5.20
2009,04,24,08,12,5.30
2009,04,24,08,13,5.30
2009,04,24,08,14,5.30
2009,04,24,08,15,5.40
2009,04,24,08,16,5.50
2009,04,24,08,17,5.60
2009,04,24,08,18,5.60
2009,04,24,08,19,5.70
2009,04,24,08,20,5.70
2009,04,24,08,21,5.70
2009,04,24,08,22,5.80
2009,04,24,08,23,5.80
2009,04,24,08,24,5.90
2009,04,24,08,25,5.90
2009,04,24,08,26,6.00
2009,04,24,08,27,6.10
2009,04,24,08,28,6.10
2009,04,24,08,29,6.20
2009,04,24,08,30,6.40
2009,04,24,08,31,6.70
2009,04,24,08,32,6.80
2009,04,24,08,33,7.00
2009,04,24,08,34,7.20
2009,04,24,08,35,7.20
2009,04,24,08,36,7.30
2009,04,24,08,37,7.30
2009,04,24,08,38,7.30
2009,04,24,08,39,7.30
2009,04,24,08,40,7.30
2009,04,24,08,41,7.40
2009,04,24,08,42,7.50
2009,04,24,08,43,7.60
2009,04,24,08,44,7.80
2009,04,24,08,45,7.90
2009,04,24,08,46,8.00
2009,04,24,08,47,8.10
2009,04,24,08,48,8.30
2009,04,24,08,49,8.40
2009,04,24,08,50,8.40
2009,04,24,08,51,8.50
2009,04,24,08,52,8.60
2009,04,24,08,53,8.70
2009,04,24,08,54,8.70
2009,04,24,08,55,8.80
2009,04,24,08,56,8.90
2009,04,24,08,57,8.90
2009,04,24,08,58,8.90
2009,04,24,08,59,9.00
2009,04,24,09,00,9.10
2009,04,24,09,01,9.20
2009,04,24,09,02,9.30
2009,04,24,09,03,9.40
2009,04,24,09,04,9.50
2009,04,24,09,05,9.60
2009,04,24,09,06,9.70
2009,04,24,09,07,9.80
2009,04,24,09,08,9.90
2009,04,24,09,09,10.00
2009,04,24,09,10,10.10
2009,04,24,09,11,10.20
2009,04,24,09,12,10.20
2009,04,24,09,13,10.20
2009,04,24,09,14,10.20
2009,04,24,09,15,10.20
2009,04,24,09,16,10.30
2009,04,24,09,17,10.30
2009,04,24,09,18,10.40
2009,04,24,09,19,10.40
2009,04,24,09,20,10.40
2009,04,24,09,21,10.40
2009,04,24,09,22,10.40
2009,04,24,09,23,10.50
2009,04,24,09,24,10.60
2009,04,24,09,25,10.70
2009,04,24,09,26,10.70
2009,04,24,09,27,10.70
2009,04,24,09,28,10.70
2009,04,24,09,29,10.60
2009,04,24,09,30,10.40
2009,04,24,09,31,10.30
2009,04,24,09,32,10.20
2009,04,24,09,33,10.20
2009,04,24,09,34,10.30
2009,04,24,09,35,10.30
2009,04,24,09,36,10.40
2009,04,24,09,37,10.60
2009,04,24,09,38,10.80
2009,04,24,09,39,10.90
2009,04,24,09,40,11.00
2009,04,24,09,41,11.10
2009,04,24,09,42,11.10
2009,04,24,09,43,11.00
2009,04,24,09,44,10.80
2009,04,24,09,45,10.60
2009,04,24,09,46,10.40
2009,04,24,09,47,10.30
2009,04,24,09,48,10.20
2009,04,24,09,49,10.20
2009,04,24,09,50,10.20
2009,04,24,09,51,10.20
2009,04,24,09,52,10.20
2009,04,24,09,53,10.20
2009,04,24,09,54,10.20
2009,04,24,09,55,10.20
2009,04,24,09,56,10.10
2009,04,24,09,57,10.00
2009,04,24,09,58,10.00
2009,04,24,09,59,10.00
2009,04,24,10,00,10.10
2009,04,24,10,01,10.10
2009,04,24,10,02,10.10
2009,04,24,10,03,10.20
2009,04,24,10,04,10.20
2009,04,24,10,05,10.20
2009,04,24,10,06,10.30
2009,04,24,10,07,10.40
2009,04,24,10,08,10.50
2009,04,24,10,09,10.50
2009,04,24,10,10,10.60
2009,04,24,10,11,10.60
2009,04,24,10,12,10.60
2009,04,24,10,13,10.50
2009,04,24,10,14,10.40
2009,04,24,10,15,10.40
2009,04,24,10,16,10.30
2009,04,24,10,17,10.30
2009,04,24,10,18,10.30
2009,04,24,10,19,10.30
2009,04,24,10,20,10.30
2009,04,24,10,21,10.30
2009,04,24,10,22,10.30
2009,04,24,10,23,10.30
2009,04,24,10,24,10.40
2009,04,24,10,25,10.60
2009,04,24,10,26,10.70
2009,04,24,10,27,10.90
2009,04,24,10,28,11.00
2009,04,24,10,29,11.10
2009,04,24,10,30,11.20
2009,04,24,10,31,11.30
2009,04,24,10,32,11.30
2009,04,24,10,33,11.40
2009,04,24,10,34,11.40
2009,04,24,10,35,11.50
2009,04,24,10,36,11.60
2009,04,24,10,37,11.70
2009,04,24,10,38,11.80
2009,04,24,10,39,11.90
2009,04,24,10,40,12.00
2009,04,24,10,41,12.00
2009,04,24,10,42,11.90
2009,04,24,10,43,11.80
2009,04,24,10,44,11.80
2009,04,24,10,45,11.80
2009,04,24,10,46,11.80
2009,04,24,10,47,11.80
2009,04,24,10,48,11.90
2009,04,24,10,49,12.00
2009,04,24,10,50,12.00
2009,04,24,10,51,12.00
2009,04,24,10,52,12.00
2009,04,24,10,53,12.00
2009,04,24,10,54,11.80
2009,04,24,10,55,11.70
2009,04,24,10,56,11.70
2009,04,24,10,57,11.70
2009,04,24,10,58,11.60
2009,04,24,10,59,11.60
2009,04,24,11,00,11.60
2009,04,24,11,01,11.50
2009,04,24,11,02,11.40
2009,04,24,11,03,11.30
2009,04,24,11,04,11.20
2009,04,24,11,05,10.90
2009,04,24,11,06,10.80
2009,04,24,11,07,10.60
2009,04,24,11,08,10.60
2009,04,24,11,09,10.50
2009,04,24,11,10,10.40
2009,04,24,11,11,10.40
2009,04,24,11,12,10.40
2009,04,24,11,13,10.30
2009,04,24,11,14,10.30
2009,04,24,11,15,10.30
2009,04,24,11,16,10.30
2009,04,24,11,17,10.40
2009,04,24,11,18,10.40
2009,04,24,11,19,10.30
2009,04,24,11,20,10.30
2009,04,24,11,21,10.40
2009,04,24,11,22,10.30
2009,04,24,11,23,10.40
2009,04,24,11,24,10.50
2009,04,24,11,25,10.70
2009,04,24,11,26,10.90
2009,04,24,11,27,10.90
2009,04,24,11,28,10.90
2009,04,24,11,29,10.90
2009,04,24,11,30,10.80
2009,04,24,11,31,10.70
2009,04,24,11,32,10.70
2009,04,24,11,33,10.80
2009,04,24,11,34,10.80
2009,04,24,11,35,10.80
2009,04,24,11,36,10.80
2009,04,24,11,37,10.80
2009,04,24,11,38,10.80
2009,04,24,11,39,10.80
2009,04,24,11,40,10.80
2009,04,24,11,41,10.70
2009,04,24,11,42,10.50
2009,04,24,11,43,10.50
2009,04,24,11,44,10.40
2009,04,24,11,45,10.40
2009,04,24,11,46,10.40
2009,04,24,11,47,10.30
2009,04,24,11,48,10.30
2009,04,24,11,49,10.40
2009,04,24,11,50,10.60
2009,04,24,11,51,10.60
2009,04,24,11,52,10.60
2009,04,24,11,53,10.70
2009,04,24,11,54,10.70
2009,04,24,11,55,10.80
2009,04,24,11,56,10.70
2009,04,24,11,57,10.60
2009,04,24,11,58,10.40
2009,04,24,11,59,10.40
2009,04,24,12,00,10.40
2009,04,24,12,01,10.50
2009,04,24,12,02,10.50
2009,04,24,12,03,10.60
2009,04,24,12,04,10.70
2009,04,24,12,05,10.70
2009,04,24,12,06,10.70
2009,04,24,12,07,10.60
2009,04,24,12,08,10.50
2009,04,24,12,09,10.40
2009,04,24,12,10,10.40
2009,04,24,12,11,10.40
2009,04,24,12,12,10.40
2009,04,24,12,13,10.50
2009,04,24,12,14,10.60
2009,04,24,12,15,10.60
2009,04,24,12,16,10.70
2009,04,24,12,17,10.70
2009,04,24,12,18,10.70
2009,04,24,12,19,10.70
2009,04,24,12,20,10.70
2009,04,24,12,21,10.70
2009,04,24,12,22,10.70
2009,04,24,12,23,10.70
2009,04,24,12,24,10.70
2009,04,24,12,25,10.70
2009,04,24,12,26,10.80
2009,04,24,12,27,10.70
2009,04,24,12,28,10.60
2009,04,24,12,29,10.60
2009,04,24,12,30,10.60
2009,04,24,12,31,10.60
2009,04,24,12,32,10.60
2009,04,24,12,33,10.50
2009,04,24,12,34,10.40
2009,04,24,12,35,10.30
2009,04,24,12,36,10.30
2009,04,24,12,37,10.40
2009,04,24,12,38,10.30
2009,04,24,12,39,10.30
2009,04,24,12,40,10.30
2009,04,24,12,41,10.40
2009,04,24,12,42,10.40
2009,04,24,12,43,10.50
2009,04,24,12,44,10.50
2009,04,24,12,45,10.60
2009,04,24,12,46,10.50
2009,04,24,12,47,10.40
2009,04,24,12,48,10.40
2009,04,24,12,49,10.50
2009,04,24,12,50,10.50
2009,04,24,12,51,10.60
2009,04,24,12,52,10.70
2009,04,24,12,53,10.70
2009,04,24,12,54,10.60
2009,04,24,12,55,10.50
2009,04,24,12,56,10.40
2009,04,24,12,57,10.50
2009,04,24,12,58,10.50
2009,04,24,12,59,10.40
2009,04,24,13,00,10.40
2009,04,24,13,01,10.50
2009,04,24,13,02,10.70
2009,04,24,13,03,10.60
2009,04,24,13,04,10.60
2009,04,24,13,05,10.70
2009,04,24,13,06,10.60
2009,04,24,13,07,10.50
2009,04,24,13,08,10.40
2009,04,24,13,09,10.40
2009,04,24,13,10,10.40
2009,04,24,13,11,10.40
2009,04,24,13,12,10.50
2009,04,24,13,13,10.70
2009,04,24,13,14,10.60
2009,04,24,13,15,10.60
2009,04,24,13,16,10.60
2009,04,24,13,17,10.60
2009,04,24,13,18,10.70
2009,04,24,13,19,10.80
2009,04,24,13,20,10.80
2009,04,24,13,21,10.70
2009,04,24,13,22,10.60
2009,04,24,13,23,10.50
2009,04,24,13,24,10.40
2009,04,24,13,25,10.50
2009,04,24,13,26,10.60
2009,04,24,13,27,10.70
2009,04,24,13,28,10.70
2009,04,24,13,29,10.60
2009,04,24,13,30,10.60
2009,04,24,13,31,10.50
2009,04,24,13,32,10.40
2009,04,24,13,33,10.50
2009,04,24,13,34,10.60
2009,04,24,13,35,10.60
2009,04,24,13,36,10.60
2009,04,24,13,37,10.60
2009,04,24,13,38,10.60
2009,04,24,13,39,10.60
2009,04,24,13,40,10.60
2009,04,24,13,41,10.60
2009,04,24,13,42,10.60
2009,04,24,13,43,10.70
2009,04,24,13,44,10.90
2009,04,24,13,45,10.90
2009,04,24,13,46,10.90
2009,04,24,13,47,10.90
2009,04,24,13,48,10.80
2009,04,24,13,49,10.80
2009,04,24,13,50,10.70
2009,04,24,13,51,10.70
2009,04,24,13,52,10.80
2009,04,24,13,53,10.80
2009,04,24,13,54,10.80
2009,04,24,13,55,10.80
2009,04,24,13,56,10.60
2009,04,24,13,57,10.50
2009,04,24,13,58,10.40
2009,04,24,13,59,10.30
2009,04,24,14,00,10.30
2009,04,24,14,01,10.40
2009,04,24,14,02,10.60
2009,04,24,14,03,10.70
2009,04,24,14,04,10.80
2009,04,24,14,05,10.80
2009,04,24,14,06,10.80
2009,04,24,14,07,10.70
2009,04,24,14,08,10.60
2009,04,24,14,09,10.60
2009,04,24,14,10,10.60
2009,04,24,14,11,10.60
2009,04,24,14,12,10.60
2009,04,24,14,13,10.60
2009,04,24,14,14,10.60
2009,04,24,14,15,10.60
2009,04,24,14,16,10.50
2009,04,24,14,17,10.50
2009,04,24,14,18,10.40
2009,04,24,14,19,10.40
2009,04,24,14,20,10.30
2009,04,24,14,21,10.30
2009,04,24,14,22,10.30
2009,04,24,14,23,10.30
2009,04,24,14,24,10.20
2009,04,24,14,25,10.20
2009,04,24,14,26,10.20
2009,04,24,14,27,10.20
2009,04,24,14,28,10.40
2009,04,24,14,29,10.50
2009,04,24,14,30,10.50
2009,04,24,14,31,10.40
2009,04,24,14,32,10.30
2009,04,24,14,33,10.20
2009,04,24,14,34,10.10
2009,04,24,14,35,10.10
2009,04,24,14,36,10.10
2009,04,24,14,37,10.20
2009,04,24,14,38,10.30
2009,04,24,14,39,10.30
2009,04,24,14,40,10.30
2009,04,24,14,41,10.40
2009,04,24,14,42,10.40
2009,04,24,14,43,10.50
2009,04,24,14,44,10.50
2009,04,24,14,45,10.40
2009,04,24,14,46,10.30
2009,04,24,14,47,10.30
2009,04,24,14,48,10.20
2009,04,24,14,49,10.10
2009,04,24,14,50,10.00
2009,04,24,14,51,10.00
2009,04,24,14,52,10.10
2009,04,24,14,53,9.90
2009,04,24,14,54,9.90
2009,04,24,14,55,9.90
2009,04,24,14,56,9.90
2009,04,24,14,57,9.90
2009,04,24,14,58,9.90
2009,04,24,14,59,9.90
2009,04,24,15,00,9.90
2009,04,24,15,01,10.00
2009,04,24,15,02,10.00
2009,04,24,15,03,10.00
2009,04,24,15,04,10.10
2009,04,24,15,05,10.20
2009,04,24,15,06,10.20
2009,04,24,15,07,10.20
2009,04,24,15,08,10.20
2009,04,24,15,09,10.10
2009,04,24,15,10,10.00
2009,04,24,15,11,10.00
2009,04,24,15,12,9.90
2009,04,24,15,13,9.90
2009,04,24,15,14,9.90
2009,04,24,15,15,9.90
2009,04,24,15,16,9.90
2009,04,24,15,17,9.80
2009,04,24,15,18,9.70
2009,04,24,15,19,9.70
2009,04,24,15,20,9.80
2009,04,24,15,21,9.90
2009,04,24,15,22,9.90
2009,04,24,15,23,9.90
2009,04,24,15,24,9.80
2009,04,24,15,25,9.80
2009,04,24,15,26,9.80
2009,04,24,15,27,9.80
2009,04,24,15,28,9.70
2009,04,24,15,29,9.70
2009,04,24,15,30,9.70
2009,04,24,15,31,9.70
2009,04,24,15,32,9.70
2009,04,24,15,33,9.70
2009,04,24,15,34,9.80
2009,04,24,15,35,9.80
2009,04,24,15,36,9.70
2009,04,24,15,37,9.80
2009,04,24,15,38,10.00
2009,04,24,15,39,10.00
2009,04,24,15,40,10.00
2009,04,24,15,41,10.10
2009,04,24,15,42,10.00
2009,04,24,15,43,10.00
2009,04,24,15,44,10.00
2009,04,24,15,45,10.20
2009,04,24,15,46,10.30
2009,04,24,15,47,10.40
2009,04,24,15,48,10.40
2009,04,24,15,49,10.30
2009,04,24,15,50,10.30
2009,04,24,15,51,10.40
2009,04,24,15,52,10.40
2009,04,24,15,53,10.30
2009,04,24,15,54,10.30
2009,04,24,15,55,10.40
2009,04,24,15,56,10.40
2009,04,24,15,57,10.50
2009,04,24,15,58,10.40
2009,04,24,15,59,10.40
2009,04,24,16,00,10.40
2009,04,24,16,01,10.50
2009,04,24,16,02,10.60
2009,04,24,16,03,10.70
2009,04,24,16,04,10.80
2009,04,24,16,05,10.90
2009,04,24,16,06,11.10
2009,04,24,16,07,11.30
2009,04,24,16,08,11.50
2009,04,24,16,09,11.70
2009,04,24,16,10,12.00
2009,04,24,16,11,12.20
2009,04,24,16,12,12.60
2009,04,24,16,13,12.90
2009,04,24,16,14,13.40
2009,04,24,16,15,13.80
2009,04,24,16,16,14.10
2009,04,24,16,17,14.40
2009,04,24,16,18,14.70
2009,04,24,16,19,14.90
2009,04,24,16,20,15.00
2009,04,24,16,21,15.00
2009,04,24,16,22,15.10
2009,04,24,16,23,15.20
2009,04,24,16,24,15.30
2009,04,24,16,25,15.30
2009,04,24,16,26,15.30
2009,04,24,16,27,15.30
2009,04,24,16,28,15.30
2009,04,24,16,29,15.30
2009,04,24,16,30,15.20
2009,04,24,16,31,15.10
2009,04,24,16,32,15.10
2009,04,24,16,33,15.10
2009,04,24,16,34,15.10
2009,04,24,16,35,15.10
2009,04,24,16,36,15.20
2009,04,24,16,37,15.30
2009,04,24,16,38,15.30
2009,04,24,16,39,15.20
2009,04,24,16,40,15.30
2009,04,24,16,41,15.30
2009,04,24,16,42,15.20
2009,04,24,16,43,15.20
2009,04,24,16,44,15.30
2009,04,24,16,45,15.40
2009,04,24,16,46,15.40
2009,04,24,16,47,15.40
2009,04,24,16,48,15.30
2009,04,24,16,49,15.30
2009,04,24,16,50,15.30
2009,04,24,16,51,15.30
2009,04,24,16,52,15.30
2009,04,24,16,53,15.30
2009,04,24,16,54,15.30
2009,04,24,16,55,15.40
2009,04,24,16,56,15.50
2009,04,24,16,57,15.60
2009,04,24,16,58,15.70
2009,04,24,16,59,15.70
2009,04,24,17,00,15.80
2009,04,24,17,01,15.70
2009,04,24,17,02,15.70
2009,04,24,17,03,15.60
2009,04,24,17,04,15.60
2009,04,24,17,05,15.50
2009,04,24,17,06,15.50
2009,04,24,17,07,15.40
2009,04,24,17,08,15.30
2009,04,24,17,09,15.20
2009,04,24,17,10,15.30
2009,04,24,17,11,15.30
2009,04,24,17,12,15.40
2009,04,24,17,13,15.50
2009,04,24,17,14,15.50
2009,04,24,17,15,15.50
2009,04,24,17,16,15.40
2009,04,24,17,17,15.40
2009,04,24,17,18,15.30
2009,04,24,17,19,15.20
2009,04,24,17,20,15.10
2009,04,24,17,21,15.10
2009,04,24,17,22,15.10
2009,04,24,17,23,15.10
2009,04,24,17,24,15.20
2009,04,24,17,25,15.20
2009,04,24,17,26,15.20
2009,04,24,17,27,15.10
2009,04,24,17,28,15.10
2009,04,24,17,29,15.20
2009,04,24,17,30,15.30
2009,04,24,17,31,15.30
2009,04,24,17,32,15.20
2009,04,24,17,33,15.00
2009,04,24,17,34,15.00
2009,04,24,17,35,15.00
2009,04,24,17,36,15.00
2009,04,24,17,37,15.00
2009,04,24,17,38,15.00
2009,04,24,17,39,15.00
2009,04,24,17,40,14.90
2009,04,24,17,41,14.90
2009,04,24,17,42,14.90
2009,04,24,17,43,14.90
2009,04,24,17,44,14.90